| time (UTC) | temp F | wind direction | speed MPH | gust MPH | rain 1hr in | rain 24hr in | rain mn in | humidity % | barometer mb |
| 20260508132657 | 58 | 240 | 0.0 | 1.0 | 0.00 | 0.00 | 0.00 | 56 | 1016.9 |
| 20260508131701 | 58 | 324 | 0.0 | 0.0 | 0.00 | 0.00 | 0.00 | 57 | 1016.9 |
| 20260508130716 | 58 | 217 | 0.0 | 4.0 | 0.00 | 0.00 | 0.00 | 54 | 1016.9 |
| 20260508125652 | 59 | 225 | 0.0 | 2.0 | 0.00 | 0.00 | 0.00 | 56 | 1016.8 |
| 20260508124630 | 58 | 224 | 0.0 | 3.0 | 0.00 | 0.00 | 0.00 | 55 | 1016.8 |
| 20260508122451 | 57 | 232 | 0.0 | 3.0 | 0.00 | 0.00 | 0.00 | 58 | 1016.7 |
| 20260508121500 | 57 | 169 | 0.0 | 4.0 | 0.00 | 0.00 | 0.00 | 58 | 1016.7 |
| 20260508120447 | 57 | 308 | 0.0 | 6.0 | 0.00 | 0.00 | 0.00 | 59 | 1016.8 |
| 20260508114256 | 56 | 176 | 0.0 | 0.0 | 0.00 | 0.00 | 0.00 | 61 | 1016.7 |
| 20260508113253 | 56 | 190 | 0.0 | 1.0 | 0.00 | 0.00 | 0.00 | 61 | 1016.6 |
| 20260508110003 | 54 | 214 | 0.0 | 4.0 | 0.00 | 0.00 | 0.00 | 65 | 1016.6 |
| 20260508104959 | 54 | 242 | 0.0 | 4.0 | 0.00 | 0.00 | 0.00 | 65 | 1016.6 |
| 20260508103924 | 54 | 226 | 0.0 | 0.0 | 0.00 | 0.00 | 0.00 | 67 | 1016.5 |
| 20260508102932 | 53 | 222 | 0.0 | 1.0 | 0.00 | 0.00 | 0.00 | 70 | 1016.4 |
| 20260508100825 | 52 | 209 | 0.0 | 1.0 | 0.00 | 0.00 | 0.00 | 70 | 1016.3 |
| 20260508093527 | 52 | 313 | 0.0 | 2.0 | 0.00 | 0.00 | 0.00 | 72 | 1016.0 |
| 20260508092503 | 52 | 300 | 0.0 | 3.0 | 0.00 | 0.00 | 0.00 | 70 | 1015.9 |
| 20260508091526 | 54 | 291 | 0.0 | 0.0 | 0.00 | 0.00 | 0.00 | 67 | 1015.7 |
| 20260508090533 | 54 | 177 | 0.0 | 3.0 | 0.00 | 0.00 | 0.00 | 66 | 1015.7 |
| 20260508085516 | 54 | 190 | 0.0 | 3.0 | 0.00 | 0.00 | 0.00 | 66 | 1015.7 |
| 20260508082216 | 52 | 218 | 0.0 | 2.0 | 0.00 | 0.00 | 0.00 | 73 | 1015.5 |
| 20260508081149 | 51 | 198 | 0.0 | 0.0 | 0.00 | 0.00 | 0.00 | 74 | 1015.5 |
| 20260508080152 | 51 | 248 | 0.0 | 0.0 | 0.00 | 0.00 | 0.00 | 75 | 1015.4 |
| 20260508075208 | 51 | 207 | 0.0 | 0.0 | 0.00 | 0.00 | 0.00 | 78 | 1015.3 |
| 20260508073027 | 50 | 198 | 0.0 | 0.0 | 0.00 | 0.00 | 0.00 | 80 | 1015.0 |
| 20260508072025 | 50 | 228 | 0.0 | 0.0 | 0.00 | 0.00 | 0.00 | 81 | 1014.9 |
| 20260508070950 | 50 | 228 | 0.0 | 1.0 | 0.00 | 0.00 | 0.00 | 81 | 1014.7 |
| 20260508064819 | 49 | 168 | 0.0 | 0.0 | 0.00 | 0.00 | 0.00 | 85 | 1014.5 |
| 20260508063802 | 49 | 240 | 0.0 | 0.0 | 0.00 | 0.00 | 0.00 | 84 | 1014.5 |
| 20260508061547 | 49 | 158 | 0.0 | 0.0 | 0.00 | 0.00 | 0.00 | 84 | 1014.3 |
| 20260508060606 | 49 | 236 | 0.0 | 0.0 | 0.00 | 0.00 | 0.00 | 85 | 1014.2 |
| 20260508055539 | 49 | 216 | 0.0 | 0.0 | 0.00 | 0.00 | 0.00 | 85 | 1014.1 |
| 20260508054603 | 49 | 226 | 0.0 | 2.0 | 0.00 | 0.00 | 0.00 | 84 | 1013.9 |
| 20260508053625 | 49 | 267 | 0.0 | 0.0 | 0.00 | 0.00 | 0.00 | 84 | 1013.8 |
| 20260508052559 | 49 | 150 | 0.0 | 2.0 | 0.00 | 0.00 | 0.00 | 84 | 1013.7 |
| 20260508051542 | 49 | 173 | 0.0 | 0.0 | 0.00 | 0.00 | 0.00 | 84 | 1013.6 |
| 20260508050509 | 49 | 145 | 0.0 | 0.0 | 0.00 | 0.00 | 0.00 | 83 | 1013.5 |
| 20260508044403 | 49 | 155 | 0.0 | 0.0 | 0.00 | 0.00 | 0.00 | 82 | 1013.3 |
| 20260508043344 | 49 | 158 | 0.0 | 0.0 | 0.00 | 0.00 | 0.00 | 82 | 1013.3 |
| 20260508042348 | 49 | 165 | 0.0 | 0.0 | 0.00 | 0.00 | 0.00 | 82 | 1013.2 |
| 20260508040215 | 49 | 176 | 0.0 | 0.0 | 0.00 | 0.00 | 0.00 | 81 | 1013.0 |
| 20260508035231 | 49 | 176 | 0.0 | 0.0 | 0.00 | 0.00 | 0.00 | 81 | 1013.0 |
| 20260508034221 | 49 | 191 | 0.0 | 1.0 | 0.00 | 0.00 | 0.00 | 80 | 1012.9 |
| 20260508033246 | 49 | 172 | 0.0 | 0.0 | 0.00 | 0.00 | 0.00 | 80 | 1012.8 |
| 20260508032220 | 49 | 233 | 0.0 | 0.0 | 0.00 | 0.00 | 0.00 | 81 | 1012.7 |
| 20260508031242 | 49 | 138 | 0.0 | 0.0 | 0.00 | 0.00 | 0.00 | 80 | 1012.7 |
| 20260508030244 | 49 | 184 | 0.0 | 1.0 | 0.00 | 0.00 | 0.00 | 81 | 1012.7 |
| 20260508025254 | 49 | 198 | 0.0 | 0.0 | 0.00 | 0.00 | 0.00 | 81 | 1012.7 |
| 20260508024306 | 49 | 153 | 0.0 | 0.0 | 0.00 | 0.00 | 0.00 | 81 | 1012.7 |
| 20260508023253 | 49 | 186 | 0.0 | 3.0 | 0.00 | 0.00 | 0.00 | 81 | 1012.6 |
| 20260508022301 | 49 | 142 | 0.0 | 1.0 | 0.00 | 0.00 | 0.00 | 81 | 1012.7 |
| 20260508020129 | 49 | 217 | 0.0 | 1.0 | 0.00 | 0.00 | 0.00 | 80 | 1012.6 |
| 20260508015137 | 49 | 200 | 0.0 | 3.0 | 0.00 | 0.00 | 0.00 | 79 | 1012.6 |
| 20260508014127 | 49 | 255 | 0.0 | 3.0 | 0.00 | 0.00 | 0.00 | 78 | 1012.5 |
| 20260508013108 | 49 | 201 | 0.0 | 2.0 | 0.00 | 0.00 | 0.00 | 77 | 1012.5 |
| 20260508012102 | 49 | 142 | 0.0 | 6.0 | 0.00 | 0.00 | 0.00 | 76 | 1012.5 |
| 20260508011103 | 49 | 232 | 0.0 | 6.0 | 0.00 | 0.00 | 0.00 | 76 | 1012.5 |
| 20260508010117 | 49 | 141 | 0.0 | 4.0 | 0.00 | 0.00 | 0.00 | 75 | 1012.6 |
| 20260508005120 | 49 | 117 | 0.0 | 3.0 | 0.00 | 0.00 | 0.00 | 74 | 1012.6 |
| 20260508004100 | 49 | 186 | 0.0 | 3.0 | 0.00 | 0.00 | 0.00 | 74 | 1012.6 |
| 20260508003058 | 49 | 142 | 0.0 | 0.0 | 0.00 | 0.00 | 0.00 | 74 | 1012.6 |
| 20260508002059 | 49 | 165 | 0.0 | 1.0 | 0.00 | 0.00 | 0.00 | 74 | 1012.6 |
| 20260507234814 | 49 | 160 | 0.0 | 0.0 | 0.00 | 0.00 | 0.00 | 75 | 1012.5 |
| 20260507233804 | 49 | 219 | 0.0 | 3.0 | 0.00 | 0.00 | 0.00 | 75 | 1012.4 |
| 20260507232747 | 49 | 209 | 0.0 | 2.0 | 0.00 | 0.00 | 0.00 | 76 | 1012.3 |
| 20260507231801 | 49 | 240 | 0.0 | 0.0 | 0.00 | 0.00 | 0.00 | 76 | 1012.3 |
| 20260507230732 | 50 | 165 | 0.0 | 2.0 | 0.00 | 0.00 | 0.00 | 75 | 1012.3 |
| 20260507225744 | 50 | 81 | 0.0 | 2.0 | 0.00 | 0.00 | 0.00 | 75 | 1012.3 |
| 20260507223603 | 50 | 219 | 0.0 | 0.0 | 0.00 | 0.00 | 0.00 | 75 | 1012.5 |
| 20260507221513 | 50 | 226 | 0.0 | 5.0 | 0.00 | 0.00 | 0.00 | 77 | 1012.3 |
| 20260507220515 | 49 | 145 | 0.0 | 3.0 | 0.00 | 0.00 | 0.00 | 77 | 1012.3 |
| 20260507214404 | 50 | 197 | 0.0 | 0.0 | 0.00 | 0.00 | 0.00 | 77 | 1012.3 |
| 20260507212216 | 50 | 174 | 0.0 | 3.0 | 0.00 | 0.00 | 0.00 | 76 | 1012.3 |
| 20260507211218 | 51 | 184 | 0.0 | 0.0 | 0.00 | 0.00 | 0.00 | 75 | 1012.3 |
| 20260507210144 | 51 | 163 | 0.0 | 6.0 | 0.00 | 0.00 | 0.00 | 75 | 1012.3 |
| 20260507205201 | 51 | 207 | 0.0 | 6.0 | 0.00 | 0.00 | 0.00 | 75 | 1012.2 |
| 20260507204128 | 51 | 191 | 0.0 | 3.0 | 0.00 | 0.00 | 0.00 | 75 | 1012.2 |
| 20260507203139 | 51 | 194 | 1.0 | 6.0 | 0.00 | 0.00 | 0.00 | 74 | 1012.1 |
| 20260507202113 | 52 | 148 | 0.0 | 5.0 | 0.00 | 0.00 | 0.00 | 74 | 1011.9 |
| 20260507201043 | 52 | 221 | 2.0 | 11.0 | 0.00 | 0.00 | 0.00 | 73 | 1011.8 |
| 20260507200054 | 52 | 158 | 0.0 | 11.0 | 0.00 | 0.00 | 0.00 | 73 | 1011.7 |
| 20260507195103 | 52 | 170 | 1.0 | 6.0 | 0.00 | 0.00 | 0.00 | 72 | 1011.8 |
| 20260507194054 | 53 | 211 | 1.0 | 5.0 | 0.00 | 0.00 | 0.00 | 71 | 1011.7 |
| 20260507193025 | 53 | 134 | 2.0 | 7.0 | 0.00 | 0.00 | 0.00 | 70 | 1011.6 |
| 20260507191957 | 53 | 200 | 1.0 | 8.0 | 0.00 | 0.00 | 0.00 | 69 | 1011.6 |
| 20260507190941 | 53 | 165 | 2.0 | 8.0 | 0.00 | 0.00 | 0.00 | 69 | 1011.7 |
| 20260507185907 | 53 | 127 | 1.0 | 9.0 | 0.00 | 0.00 | 0.00 | 69 | 1011.7 |
| 20260507183802 | 53 | 145 | 1.0 | 9.0 | 0.00 | 0.00 | 0.00 | 68 | 1011.8 |
| 20260507182754 | 54 | 180 | 2.0 | 8.0 | 0.00 | 0.00 | 0.00 | 67 | 1011.7 |
| 20260507181741 | 54 | 141 | 2.0 | 9.0 | 0.00 | 0.00 | 0.00 | 66 | 1011.6 |
| 20260507180806 | 54 | 174 | 4.0 | 9.0 | 0.00 | 0.00 | 0.00 | 65 | 1011.5 |
| 20260507175808 | 54 | 190 | 2.0 | 8.0 | 0.00 | 0.00 | 0.00 | 65 | 1011.6 |
| 20260507174758 | 54 | 177 | 3.0 | 11.0 | 0.00 | 0.00 | 0.00 | 66 | 1011.6 |
| 20260507173753 | 55 | 73 | 3.0 | 11.0 | 0.00 | 0.00 | 0.00 | 65 | 1011.6 |
| 20260507172753 | 55 | 214 | 1.0 | 7.0 | 0.00 | 0.00 | 0.00 | 63 | 1011.6 |
| 20260507171810 | 55 | 158 | 2.0 | 9.0 | 0.00 | 0.00 | 0.00 | 62 | 1011.5 |
| 20260507170751 | 56 | 191 | 2.0 | 9.0 | 0.00 | 0.00 | 0.00 | 61 | 1011.5 |
| 20260507165741 | 56 | 215 | 3.0 | 7.0 | 0.00 | 0.00 | 0.00 | 61 | 1011.6 |
| 20260507164803 | 56 | 155 | 2.0 | 7.0 | 0.00 | 0.00 | 0.00 | 59 | 1011.6 |
| 20260507163734 | 56 | 255 | 3.0 | 10.0 | 0.00 | 0.00 | 0.00 | 58 | 1011.5 |
| 20260507162745 | 57 | 240 | 2.0 | 10.0 | 0.00 | 0.00 | 0.00 | 57 | 1011.5 |
| 20260507160529 | 56 | 235 | 1.0 | 7.0 | 0.00 | 0.00 | 0.00 | 59 | 1011.4 |
| 20260507155528 | 56 | 188 | 3.0 | 9.0 | 0.00 | 0.00 | 0.00 | 61 | 1011.5 |
| 20260507154518 | 56 | 224 | 2.0 | 13.0 | 0.00 | 0.00 | 0.00 | 60 | 1011.6 |
| 20260507153523 | 56 | 166 | 2.0 | 13.0 | 0.00 | 0.00 | 0.00 | 60 | 1011.6 |
| 20260507152541 | 56 | 166 | 1.0 | 7.0 | 0.00 | 0.00 | 0.00 | 60 | 1011.7 |
| 20260507151600 | 56 | 166 | 2.0 | 10.0 | 0.00 | 0.00 | 0.00 | 61 | 1011.7 |
| 20260507150621 | 55 | 172 | 2.0 | 12.0 | 0.00 | 0.00 | 0.00 | 62 | 1011.7 |
| 20260507145604 | 55 | 160 | 3.0 | 12.0 | 0.00 | 0.00 | 0.00 | 62 | 1011.8 |
| 20260507144612 | 55 | 207 | 3.0 | 10.0 | 0.00 | 0.00 | 0.00 | 63 | 1011.9 |
| 20260507143619 | 55 | 144 | 2.0 | 10.0 | 0.00 | 0.00 | 0.00 | 64 | 1011.8 |
| 20260507141453 | 55 | 193 | 2.0 | 9.0 | 0.00 | 0.00 | 0.00 | 64 | 1012.0 |
| 20260507140437 | 55 | 141 | 2.0 | 7.0 | 0.00 | 0.00 | 0.00 | 64 | 1012.0 |
| 20260507135454 | 55 | 217 | 1.0 | 5.0 | 0.00 | 0.00 | 0.00 | 67 | 1012.1 |
| 20260507134440 | 54 | 172 | 1.0 | 5.0 | 0.00 | 0.00 | 0.00 | 70 | 1012.2 |